Hickory, NC

8:20 AM EST on November 23, 2017 (GMT -0500)
Hickory Regional

Weather History for KHKY - April, 2014

Change the Weather History Date:

Monday, April 21, 2014

  Actual Average Record
Temperature  
Mean Temperature 57 °F -  
Max Temperature 75 °F 72 °F 90 °F (1963)
Min Temperature 41 °F 49 °F 30 °F (1983)
Degree Days  
Heating Degree Days 8    
Growing Degree Days 7 (Base 50)    
Moisture  
Dew Point 39 °F    
Average Humidity 51    
Maximum Humidity 86    
Minimum Humidity 30    
Precipitation  
Precipitation 0.00 in - - ()
Sea Level Pressure  
Sea Level Pressure 30.05 in    
Wind  
Wind Speed 0 mph (North)    
Max Wind Speed 4 mph    
Max Gust Speed -    
Visibility 10 miles    
Events      
Averages and records for this station are not official NWS values.
T = Trace of Precipitation, MM = Missing Value Source: NWS Daily Summary

Daily Weather History Graph

Daily Weather History Graph

Search for Another Location

Airport or City:

Trip Planner

Search our weather history database for the weather conditions in past years. The results will help you decide how hot, cold, wet, or windy it might be!

Date:

Astronomy

Apr. 21, 2014 Rise Set
Actual Time 6:45 AM EDT 8:03 PM EDT
Civil Twilight 6:18 AM EDT 8:30 PM EDT
Nautical Twilight 5:46 AM EDT 9:02 PM EDT
Astronomical Twilight 5:13 AM EDT 9:35 PM EDT
Moon 1:29 AM EDT (4/21) 12:12 PM EDT (4/21)
Length of Visible Light 14h 12m
Length of Day
13h 18m
Waning Gibbous, 58% of the Moon is Illuminated
Apr 21
Waning Gibbous
Apr 22
Last Quarter
Apr 29
New
May 6
First Quarter
May 14
Full

Hourly Weather History & Observations

Time (EDT) Temp. Dew Point Humidity Pressure Visibility Wind Dir Wind Speed Gust Speed Precip Events Conditions
12:53 AM 51.1 °F 33.1 °F 50% 30.16 in 10.0 mi Calm Calm - N/A   Clear
1:53 AM 48.9 °F 36.0 °F 61% 30.16 in 10.0 mi Calm Calm - N/A   Clear
2:53 AM 48.0 °F 35.1 °F 61% 30.15 in 10.0 mi Calm Calm - N/A   Clear
3:53 AM 46.9 °F 36.0 °F 66% 30.15 in 10.0 mi Calm Calm - N/A   Clear
4:53 AM 44.1 °F 37.0 °F 76% 30.15 in 10.0 mi Calm Calm - N/A   Clear
5:53 AM 42.1 °F 35.1 °F 76% 30.14 in 10.0 mi Calm Calm - N/A   Clear
6:53 AM 41.0 °F 35.1 °F 79% 30.15 in 10.0 mi Calm Calm - N/A   Clear
7:53 AM 43.0 °F 39.0 °F 86% 30.16 in 10.0 mi Calm Calm - N/A   Clear
8:53 AM 48.9 °F 39.0 °F 69% 30.16 in 10.0 mi Calm Calm - N/A   Clear
9:53 AM 55.9 °F 36.0 °F 47% 30.14 in 10.0 mi Calm Calm - N/A   Clear
10:53 AM 59.0 °F 37.0 °F 44% 30.13 in 10.0 mi Calm Calm - N/A   Clear
11:53 AM 63.0 °F 39.0 °F 41% 30.10 in 10.0 mi Calm Calm - N/A   Clear
12:53 PM 66.0 °F 39.9 °F 38% 30.06 in 10.0 mi Calm Calm - N/A   Clear
1:53 PM 70.0 °F 41.0 °F 35% 30.02 in 10.0 mi Variable 3.5 mph - N/A   Clear
2:53 PM 72.0 °F 42.1 °F 34% 29.98 in 10.0 mi Calm Calm - N/A   Clear
3:53 PM 73.0 °F 43.0 °F 34% 29.96 in 10.0 mi Variable 3.5 mph - N/A   Clear
4:53 PM 73.9 °F 43.0 °F 33% 29.94 in 10.0 mi Variable 3.5 mph - N/A   Clear
5:53 PM 73.0 °F 39.9 °F 30% 29.93 in 10.0 mi Calm Calm - N/A   Clear
6:53 PM 71.1 °F 39.0 °F 31% 29.92 in 10.0 mi Calm Calm - N/A   Clear
7:53 PM 68.0 °F 43.0 °F 40% 29.92 in 10.0 mi Calm Calm - N/A   Clear
8:53 PM 64.0 °F 43.0 °F 46% 29.92 in 10.0 mi Calm Calm - N/A   Clear
9:53 PM 63.0 °F 43.0 °F 48% 29.93 in 10.0 mi Calm Calm - N/A   Clear
10:53 PM 61.0 °F 44.1 °F 54% 29.91 in 10.0 mi Calm Calm - N/A   Clear
11:53 PM 61.0 °F 45.0 °F 56% 29.88 in 10.0 mi Calm Calm - N/A   Clear